Погода в Краснинском

Россия / Челябинская область     53°55′04″N   59°40′01″E
темп.,
°C
ветер,
м/с
пор.,
м/с
влажн.,
%
обл.,
%
осадки,
мм/ч
давл.,
гПа
погр.,
м
21 апреля, ср
ср2123:00+2зсз22400 0.0 103212
02:00+1зсз11440 0.0 103310
05:00+1зсз11470 0.0 103310
08:00+4з22410 0.0 1034161
11:00+8зюз11330 0.0 1033899
14:00+11ю222953 0.0 10321304
17:00+12ююз22276 0.0 10321514
20:00+9ю343867 0.0 103253
22 апреля, чт
чт2223:00+6ююз3648100 0.0 1034102
02:00+5ююз345693 0.0 103466
05:00+4ююз3660100 0.0 1035105
08:00+5ю4953100 0.0 1035364
11:00+8ююз6939100 0.0 1035963
14:00+11ююз7932100 0.0 10341501
17:00+10ю6838100 0.0 10341312
20:00+8ю5947100 0.0 1034322
23 апреля, пт
пт2323:00+7ю31057100 0.0 1034307
02:00+6ю41163100 0.0 1033495
05:00+6ююв4966100 0.0 1033390
08:00+6ююз4975100 0.1 1033789
11:00+7ю6977100 0.3 1032931
14:00+11ююз5748100 0.1 10311604
17:00+13ююз5747100 0.1 10301739
20:00+11вюв2356100 0.0 102946
24 апреля, сб
сб2423:00+9ююз5763100 0.1 1028703
02:00+7ю5785100 1.4 1028943
05:00+6ююв5989100 2.4 1027961
08:00+7юв5977100 0.4 1025934
11:00+8юв5861100 0.8 1023890
14:00+11юв81042100 0.0 10201417
17:00+7ююв81071100 0.2 10201064
20:00+5в7138236 0.3 1018583
25 апреля, вс
вс2523:00+6в71562100 0.3 1015532
02:00+7ююв51069100 0.1 1011469
05:00+6юз61091100 1.1 1011483
08:00+6зюз4991100 0.2 1012914
11:00+7зюз71283100 0.3 10141053
14:00+11зюз101364100 0.1 10141511
17:00+11зюз913615 0.1 10151461
20:00+8з610635 0.0 1017534